iso_date,epoch_date,Year,Hour,Min,DOY,POS_DOY,Lat,Lon,BP,Ts,Ta,has_bp,has_ts,has_ta,BuoyID,Buoy_Type,Buoy_Owner,Logistics,Hemisphere
2020-11-07T20:16:56Z,1604780217,2020,20,17,312.8451,312.8451,74.38,-156.195,1003.0,-3.35,-999.0,yes,yes,no,300534060318410,BD2GI,AOML,UNKNOWN,North
2020-11-07T21:00:00Z,1604782800,2020,21,0,312.875,312.875,74.383,-156.21,1003.7,35.95,-999.0,yes,yes,no,300534060318410,BD2GI,AOML,UNKNOWN,North
2020-11-07T22:00:02Z,1604786403,2020,22,0,312.9167,312.9167,74.387,-156.231,1004.1,35.95,-999.0,yes,yes,no,300534060318410,BD2GI,AOML,UNKNOWN,North
2020-11-07T22:59:57Z,1604789997,2020,23,0,312.9583,312.9583,74.389,-156.251,1004.4,35.95,-999.0,yes,yes,no,300534060318410,BD2GI,AOML,UNKNOWN,North
2020-11-08T00:00:00Z,1604793600,2020,0,0,313.0,313.0,74.389,-156.271,1004.9,35.95,-999.0,yes,yes,no,300534060318410,BD2GI,AOML,UNKNOWN,North
2020-11-08T01:59:57Z,1604800797,2020,2,0,313.0833,313.0833,74.39,-156.321,1005.6,35.95,-999.0,yes,yes,no,300534060318410,BD2GI,AOML,UNKNOWN,North
2020-11-08T03:00:00Z,1604804400,2020,3,0,313.125,313.125,74.39,-156.352,1006.0,35.95,-999.0,yes,yes,no,300534060318410,BD2GI,AOML,UNKNOWN,North
2020-11-08T04:00:02Z,1604808003,2020,4,0,313.1667,313.1667,74.391,-156.388,1006.9,35.95,-999.0,yes,yes,no,300534060318410,BD2GI,AOML,UNKNOWN,North
2020-11-08T04:59:57Z,1604811597,2020,5,0,313.2083,313.2083,74.392,-156.424,1007.7,35.95,-999.0,yes,yes,no,300534060318410,BD2GI,AOML,UNKNOWN,North
2020-11-08T06:00:00Z,1604815200,2020,6,0,313.25,313.25,74.394,-156.462,1008.4,35.95,-999.0,yes,yes,no,300534060318410,BD2GI,AOML,UNKNOWN,North
2020-11-08T07:00:02Z,1604818803,2020,7,0,313.2917,313.2917,74.396,-156.501,1008.9,35.95,-999.0,yes,yes,no,300534060318410,BD2GI,AOML,UNKNOWN,North
2020-11-08T07:59:57Z,1604822397,2020,8,0,313.3333,313.3333,74.398,-156.539,1009.4,35.95,-999.0,yes,yes,no,300534060318410,BD2GI,AOML,UNKNOWN,North
2020-11-08T09:00:00Z,1604826000,2020,9,0,313.375,313.375,74.401,-156.574,1009.8,35.95,-999.0,yes,yes,no,300534060318410,BD2GI,AOML,UNKNOWN,North
2020-11-08T10:00:02Z,1604829603,2020,10,0,313.4167,313.4167,74.402,-156.605,1010.4,35.95,-999.0,yes,yes,no,300534060318410,BD2GI,AOML,UNKNOWN,North
2020-11-08T10:59:57Z,1604833197,2020,11,0,313.4583,313.4583,74.405,-156.637,1010.8,35.95,-999.0,yes,yes,no,300534060318410,BD2GI,AOML,UNKNOWN,North
2020-11-08T12:00:00Z,1604836800,2020,12,0,313.5,313.5,74.406,-156.666,1011.2,35.95,-999.0,yes,yes,no,300534060318410,BD2GI,AOML,UNKNOWN,North
2020-11-08T13:00:02Z,1604840403,2020,13,0,313.5417,313.5417,74.407,-156.693,1011.4,35.95,-999.0,yes,yes,no,300534060318410,BD2GI,AOML,UNKNOWN,North
2020-11-08T13:59:57Z,1604843997,2020,14,0,313.5833,313.5833,74.407,-156.723,1011.9,35.95,-999.0,yes,yes,no,300534060318410,BD2GI,AOML,UNKNOWN,North
2020-11-08T15:00:00Z,1604847600,2020,15,0,313.625,313.625,74.407,-156.754,1012.2,35.95,-999.0,yes,yes,no,300534060318410,BD2GI,AOML,UNKNOWN,North
2020-11-08T16:00:02Z,1604851203,2020,16,0,313.6667,313.6667,74.408,-156.785,1012.7,35.95,-999.0,yes,yes,no,300534060318410,BD2GI,AOML,UNKNOWN,North
2020-11-08T16:59:57Z,1604854797,2020,17,0,313.7083,313.7083,74.408,-156.817,1013.3,35.95,-999.0,yes,yes,no,300534060318410,BD2GI,AOML,UNKNOWN,North
2020-11-08T18:00:00Z,1604858400,2020,18,0,313.75,313.75,74.409,-156.848,1014.1,35.95,-999.0,yes,yes,no,300534060318410,BD2GI,AOML,UNKNOWN,North
2020-11-08T19:00:02Z,1604862003,2020,19,0,313.7917,313.7917,74.41,-156.878,1014.4,35.95,-999.0,yes,yes,no,300534060318410,BD2GI,AOML,UNKNOWN,North
2020-11-08T19:59:57Z,1604865597,2020,20,0,313.8333,313.8333,74.412,-156.906,1015.2,35.95,-999.0,yes,yes,no,300534060318410,BD2GI,AOML,UNKNOWN,North
2020-11-08T21:00:00Z,1604869200,2020,21,0,313.875,313.875,74.414,-156.93,1015.9,35.95,-999.0,yes,yes,no,300534060318410,BD2GI,AOML,UNKNOWN,North
2020-11-08T22:00:02Z,1604872803,2020,22,0,313.9167,313.9167,74.416,-156.95,1016.2,35.95,-999.0,yes,yes,no,300534060318410,BD2GI,AOML,UNKNOWN,North
2020-11-08T22:59:57Z,1604876397,2020,23,0,313.9583,313.9583,74.417,-156.968,1016.8,35.95,-999.0,yes,yes,no,300534060318410,BD2GI,AOML,UNKNOWN,North
2020-11-09T00:00:00Z,1604880000,2020,0,0,314.0,314.0,74.417,-156.984,1017.3,35.95,-999.0,yes,yes,no,300534060318410,BD2GI,AOML,UNKNOWN,North
2020-11-09T01:00:02Z,1604883603,2020,1,0,314.0417,314.0417,74.416,-156.997,1017.5,35.95,-999.0,yes,yes,no,300534060318410,BD2GI,AOML,UNKNOWN,North
2020-11-09T01:59:57Z,1604887197,2020,2,0,314.0833,314.0833,74.416,-157.009,1018.1,35.95,-999.0,yes,yes,no,300534060318410,BD2GI,AOML,UNKNOWN,North
2020-11-09T03:00:00Z,1604890800,2020,3,0,314.125,314.125,74.415,-157.02,1018.8,35.95,-999.0,yes,yes,no,300534060318410,BD2GI,AOML,UNKNOWN,North
2020-11-09T04:00:02Z,1604894403,2020,4,0,314.1667,314.1667,74.415,-157.031,1019.6,35.95,-999.0,yes,yes,no,300534060318410,BD2GI,AOML,UNKNOWN,North
2020-11-09T04:59:57Z,1604897997,2020,5,0,314.2083,314.2083,74.415,-157.041,1020.0,35.95,-999.0,yes,yes,no,300534060318410,BD2GI,AOML,UNKNOWN,North
2020-11-09T06:00:00Z,1604901600,2020,6,0,314.25,314.25,74.416,-157.051,1020.7,35.95,-999.0,yes,yes,no,300534060318410,BD2GI,AOML,UNKNOWN,North
2020-11-09T07:00:02Z,1604905203,2020,7,0,314.2917,314.2917,74.416,-157.06,1021.3,35.95,-999.0,yes,yes,no,300534060318410,BD2GI,AOML,UNKNOWN,North
2020-11-09T07:59:57Z,1604908797,2020,8,0,314.3333,314.3333,74.417,-157.067,1021.9,35.95,-999.0,yes,yes,no,300534060318410,BD2GI,AOML,UNKNOWN,North
2020-11-09T09:00:00Z,1604912400,2020,9,0,314.375,314.375,74.418,-157.072,1022.6,35.95,-999.0,yes,yes,no,300534060318410,BD2GI,AOML,UNKNOWN,North
2020-11-09T10:00:02Z,1604916003,2020,10,0,314.4167,314.4167,74.419,-157.074,1023.3,35.95,-999.0,yes,yes,no,300534060318410,BD2GI,AOML,UNKNOWN,North
2020-11-09T10:59:57Z,1604919597,2020,11,0,314.4583,314.4583,74.42,-157.075,1023.7,35.95,-999.0,yes,yes,no,300534060318410,BD2GI,AOML,UNKNOWN,North
2020-11-09T12:00:00Z,1604923200,2020,12,0,314.5,314.5,74.419,-157.075,1024.0,35.95,-999.0,yes,yes,no,300534060318410,BD2GI,AOML,UNKNOWN,North
2020-11-09T13:00:02Z,1604926803,2020,13,0,314.5417,314.5417,74.419,-157.075,1024.4,35.95,-999.0,yes,yes,no,300534060318410,BD2GI,AOML,UNKNOWN,North
2020-11-09T13:59:57Z,1604930397,2020,14,0,314.5833,314.5833,74.418,-157.075,1024.8,35.95,-999.0,yes,yes,no,300534060318410,BD2GI,AOML,UNKNOWN,North
2020-11-09T15:00:00Z,1604934000,2020,15,0,314.625,314.625,74.417,-157.076,1025.2,35.95,-999.0,yes,yes,no,300534060318410,BD2GI,AOML,UNKNOWN,North
2020-11-09T16:00:02Z,1604937603,2020,16,0,314.6667,314.6667,74.416,-157.078,1025.5,35.95,-999.0,yes,yes,no,300534060318410,BD2GI,AOML,UNKNOWN,North
2020-11-09T16:59:57Z,1604941197,2020,17,0,314.7083,314.7083,74.414,-157.081,1025.6,35.95,-999.0,yes,yes,no,300534060318410,BD2GI,AOML,UNKNOWN,North
2020-11-09T18:00:00Z,1604944800,2020,18,0,314.75,314.75,74.413,-157.085,1025.7,35.95,-999.0,yes,yes,no,300534060318410,BD2GI,AOML,UNKNOWN,North
2020-11-09T19:00:02Z,1604948403,2020,19,0,314.7917,314.7917,74.412,-157.089,1026.1,35.95,-999.0,yes,yes,no,300534060318410,BD2GI,AOML,UNKNOWN,North
2020-11-09T19:59:57Z,1604951997,2020,20,0,314.8333,314.8333,74.411,-157.093,1026.1,35.95,-999.0,yes,yes,no,300534060318410,BD2GI,AOML,UNKNOWN,North
2020-11-09T21:00:00Z,1604955600,2020,21,0,314.875,314.875,74.411,-157.095,1026.3,35.95,-999.0,yes,yes,no,300534060318410,BD2GI,AOML,UNKNOWN,North
2020-11-09T22:00:02Z,1604959203,2020,22,0,314.9167,314.9167,74.41,-157.095,1026.6,35.95,-999.0,yes,yes,no,300534060318410,BD2GI,AOML,UNKNOWN,North
2020-11-09T22:59:57Z,1604962797,2020,23,0,314.9583,314.9583,74.409,-157.094,1026.5,35.95,-999.0,yes,yes,no,300534060318410,BD2GI,AOML,UNKNOWN,North
2020-11-10T00:00:00Z,1604966400,2020,0,0,315.0,315.0,74.408,-157.093,1026.5,35.95,-999.0,yes,yes,no,300534060318410,BD2GI,AOML,UNKNOWN,North
2020-11-10T01:00:02Z,1604970003,2020,1,0,315.0417,315.0417,74.406,-157.09,1026.1,35.95,-999.0,yes,yes,no,300534060318410,BD2GI,AOML,UNKNOWN,North
2020-11-10T01:59:57Z,1604973597,2020,2,0,315.0833,315.0833,74.404,-157.087,1025.8,35.95,-999.0,yes,yes,no,300534060318410,BD2GI,AOML,UNKNOWN,North
2020-11-10T03:00:00Z,1604977200,2020,3,0,315.125,315.125,74.402,-157.085,1025.5,35.95,-999.0,yes,yes,no,300534060318410,BD2GI,AOML,UNKNOWN,North
2020-11-10T04:00:02Z,1604980803,2020,4,0,315.1667,315.1667,74.401,-157.085,1025.0,35.95,-999.0,yes,yes,no,300534060318410,BD2GI,AOML,UNKNOWN,North
2020-11-10T04:59:57Z,1604984397,2020,5,0,315.2083,315.2083,74.399,-157.087,1025.0,35.95,-999.0,yes,yes,no,300534060318410,BD2GI,AOML,UNKNOWN,North
2020-11-10T06:00:00Z,1604988000,2020,6,0,315.25,315.25,74.398,-157.09,1024.6,35.95,-999.0,yes,yes,no,300534060318410,BD2GI,AOML,UNKNOWN,North
2020-11-10T07:00:02Z,1604991603,2020,7,0,315.2917,315.2917,74.397,-157.096,1024.3,35.95,-999.0,yes,yes,no,300534060318410,BD2GI,AOML,UNKNOWN,North
2020-11-10T07:59:57Z,1604995197,2020,8,0,315.3333,315.3333,74.397,-157.101,1023.7,35.95,-999.0,yes,yes,no,300534060318410,BD2GI,AOML,UNKNOWN,North
2020-11-10T09:00:00Z,1604998800,2020,9,0,315.375,315.375,74.397,-157.107,1023.3,35.95,-999.0,yes,yes,no,300534060318410,BD2GI,AOML,UNKNOWN,North
2020-11-10T10:00:02Z,1605002403,2020,10,0,315.4167,315.4167,74.397,-157.112,1022.8,35.95,-999.0,yes,yes,no,300534060318410,BD2GI,AOML,UNKNOWN,North
2020-11-10T10:59:57Z,1605005997,2020,11,0,315.4583,315.4583,74.398,-157.116,1022.0,35.95,-999.0,yes,yes,no,300534060318410,BD2GI,AOML,UNKNOWN,North
2020-11-10T12:00:00Z,1605009600,2020,12,0,315.5,315.5,74.399,-157.12,1021.3,35.95,-999.0,yes,yes,no,300534060318410,BD2GI,AOML,UNKNOWN,North
2020-11-10T13:00:02Z,1605013203,2020,13,0,315.5417,315.5417,74.399,-157.123,1020.5,35.95,-999.0,yes,yes,no,300534060318410,BD2GI,AOML,UNKNOWN,North
2020-11-10T13:59:57Z,1605016797,2020,14,0,315.5833,315.5833,74.399,-157.129,1019.9,35.95,-999.0,yes,yes,no,300534060318410,BD2GI,AOML,UNKNOWN,North
2020-11-10T15:00:00Z,1605020400,2020,15,0,315.625,315.625,74.399,-157.138,1019.4,35.95,-999.0,yes,yes,no,300534060318410,BD2GI,AOML,UNKNOWN,North
2020-11-10T16:00:02Z,1605024003,2020,16,0,315.6667,315.6667,74.398,-157.152,1018.6,35.95,-999.0,yes,yes,no,300534060318410,BD2GI,AOML,UNKNOWN,North
2020-11-10T16:59:57Z,1605027597,2020,17,0,315.7083,315.7083,74.398,-157.168,1018.2,35.95,-999.0,yes,yes,no,300534060318410,BD2GI,AOML,UNKNOWN,North
2020-11-10T18:00:00Z,1605031200,2020,18,0,315.75,315.75,74.398,-157.186,1017.8,35.95,-999.0,yes,yes,no,300534060318410,BD2GI,AOML,UNKNOWN,North
2020-11-10T19:00:02Z,1605034803,2020,19,0,315.7917,315.7917,74.399,-157.205,1017.5,35.95,-999.0,yes,yes,no,300534060318410,BD2GI,AOML,UNKNOWN,North
2020-11-10T19:59:57Z,1605038397,2020,20,0,315.8333,315.8333,74.401,-157.222,1017.0,35.95,-999.0,yes,yes,no,300534060318410,BD2GI,AOML,UNKNOWN,North
2020-11-10T21:00:00Z,1605042000,2020,21,0,315.875,315.875,74.403,-157.243,1016.7,35.95,-999.0,yes,yes,no,300534060318410,BD2GI,AOML,UNKNOWN,North
2020-11-10T22:00:02Z,1605045603,2020,22,0,315.9167,315.9167,74.406,-157.26,1016.6,35.95,-999.0,yes,yes,no,300534060318410,BD2GI,AOML,UNKNOWN,North
2020-11-10T22:59:57Z,1605049197,2020,23,0,315.9583,315.9583,74.409,-157.273,1016.1,35.95,-999.0,yes,yes,no,300534060318410,BD2GI,AOML,UNKNOWN,North
2020-11-11T00:00:00Z,1605052800,2020,0,0,316.0,316.0,74.412,-157.29,1015.1,35.95,-999.0,yes,yes,no,300534060318410,BD2GI,AOML,UNKNOWN,North
2020-11-11T01:00:02Z,1605056403,2020,1,0,316.0417,316.0417,74.416,-157.307,1014.6,35.95,-999.0,yes,yes,no,300534060318410,BD2GI,AOML,UNKNOWN,North
2020-11-11T01:59:57Z,1605059997,2020,2,0,316.0833,316.0833,74.419,-157.325,1014.1,35.95,-999.0,yes,yes,no,300534060318410,BD2GI,AOML,UNKNOWN,North
2020-11-11T03:00:00Z,1605063600,2020,3,0,316.125,316.125,74.423,-157.344,1013.8,35.95,-999.0,yes,yes,no,300534060318410,BD2GI,AOML,UNKNOWN,North
2020-11-11T04:00:02Z,1605067203,2020,4,0,316.1667,316.1667,74.426,-157.365,1013.2,35.95,-999.0,yes,yes,no,300534060318410,BD2GI,AOML,UNKNOWN,North
2020-11-11T04:59:57Z,1605070797,2020,5,0,316.2083,316.2083,74.43,-157.388,1012.6,35.95,-999.0,yes,yes,no,300534060318410,BD2GI,AOML,UNKNOWN,North
2020-11-11T06:00:00Z,1605074400,2020,6,0,316.25,316.25,74.434,-157.414,1012.0,35.95,-999.0,yes,yes,no,300534060318410,BD2GI,AOML,UNKNOWN,North
2020-11-11T07:00:02Z,1605078003,2020,7,0,316.2917,316.2917,74.439,-157.442,1011.5,35.95,-999.0,yes,yes,no,300534060318410,BD2GI,AOML,UNKNOWN,North
2020-11-11T07:59:57Z,1605081597,2020,8,0,316.3333,316.3333,74.443,-157.472,1010.8,35.95,-999.0,yes,yes,no,300534060318410,BD2GI,AOML,UNKNOWN,North
2020-11-11T09:00:00Z,1605085200,2020,9,0,316.375,316.375,74.448,-157.502,1010.3,35.95,-999.0,yes,yes,no,300534060318410,BD2GI,AOML,UNKNOWN,North
2020-11-11T10:00:02Z,1605088803,2020,10,0,316.4167,316.4167,74.452,-157.531,1009.8,35.95,-999.0,yes,yes,no,300534060318410,BD2GI,AOML,UNKNOWN,North
2020-11-11T10:59:57Z,1605092397,2020,11,0,316.4583,316.4583,74.456,-157.557,1009.2,35.95,-999.0,yes,yes,no,300534060318410,BD2GI,AOML,UNKNOWN,North
2020-11-11T12:00:00Z,1605096000,2020,12,0,316.5,316.5,74.459,-157.582,1008.8,35.95,-999.0,yes,yes,no,300534060318410,BD2GI,AOML,UNKNOWN,North
2020-11-11T13:00:02Z,1605099603,2020,13,0,316.5417,316.5417,74.463,-157.607,1008.5,35.95,-999.0,yes,yes,no,300534060318410,BD2GI,AOML,UNKNOWN,North
2020-11-11T13:59:57Z,1605103197,2020,14,0,316.5833,316.5833,74.466,-157.632,1007.8,35.95,-999.0,yes,yes,no,300534060318410,BD2GI,AOML,UNKNOWN,North
2020-11-11T15:00:00Z,1605106800,2020,15,0,316.625,316.625,74.47,-157.657,1007.5,35.95,-999.0,yes,yes,no,300534060318410,BD2GI,AOML,UNKNOWN,North
2020-11-11T16:00:02Z,1605110403,2020,16,0,316.6667,316.6667,74.473,-157.681,1007.4,35.95,-999.0,yes,yes,no,300534060318410,BD2GI,AOML,UNKNOWN,North
2020-11-11T16:59:57Z,1605113997,2020,17,0,316.7083,316.7083,74.475,-157.704,1007.0,35.95,-999.0,yes,yes,no,300534060318410,BD2GI,AOML,UNKNOWN,North
2020-11-11T18:00:00Z,1605117600,2020,18,0,316.75,316.75,74.477,-157.727,1007.0,35.95,-999.0,yes,yes,no,300534060318410,BD2GI,AOML,UNKNOWN,North
2020-11-11T19:00:02Z,1605121203,2020,19,0,316.7917,316.7917,74.479,-157.754,1006.9,35.95,-999.0,yes,yes,no,300534060318410,BD2GI,AOML,UNKNOWN,North
2020-11-11T19:59:57Z,1605124797,2020,20,0,316.8333,316.8333,74.48,-157.785,1006.9,35.95,-999.0,yes,yes,no,300534060318410,BD2GI,AOML,UNKNOWN,North
2020-11-11T21:00:00Z,1605128400,2020,21,0,316.875,316.875,74.481,-157.818,1007.1,35.95,-999.0,yes,yes,no,300534060318410,BD2GI,AOML,UNKNOWN,North
2020-11-11T22:00:02Z,1605132003,2020,22,0,316.9167,316.9167,74.482,-157.851,1007.1,35.95,-999.0,yes,yes,no,300534060318410,BD2GI,AOML,UNKNOWN,North
2020-11-11T22:59:57Z,1605135597,2020,23,0,316.9583,316.9583,74.483,-157.88,1006.8,35.95,-999.0,yes,yes,no,300534060318410,BD2GI,AOML,UNKNOWN,North
2020-11-12T00:00:00Z,1605139200,2020,0,0,317.0,317.0,74.483,-157.905,1006.9,35.95,-999.0,yes,yes,no,300534060318410,BD2GI,AOML,UNKNOWN,North
2020-11-12T01:00:02Z,1605142803,2020,1,0,317.0417,317.0417,74.484,-157.927,1006.8,35.95,-999.0,yes,yes,no,300534060318410,BD2GI,AOML,UNKNOWN,North
2020-11-12T01:59:57Z,1605146397,2020,2,0,317.0833,317.0833,74.484,-157.947,1006.8,35.95,-999.0,yes,yes,no,300534060318410,BD2GI,AOML,UNKNOWN,North
2020-11-12T03:00:00Z,1605150000,2020,3,0,317.125,317.125,74.484,-157.965,1006.7,35.95,-999.0,yes,yes,no,300534060318410,BD2GI,AOML,UNKNOWN,North
2020-11-12T04:00:02Z,1605153603,2020,4,0,317.1667,317.1667,74.483,-157.982,1006.8,35.95,-999.0,yes,yes,no,300534060318410,BD2GI,AOML,UNKNOWN,North
2020-11-12T04:59:57Z,1605157197,2020,5,0,317.2083,317.2083,74.482,-157.996,1006.7,35.95,-999.0,yes,yes,no,300534060318410,BD2GI,AOML,UNKNOWN,North
2020-11-12T06:00:00Z,1605160800,2020,6,0,317.25,317.25,74.481,-158.008,1007.0,35.95,-999.0,yes,yes,no,300534060318410,BD2GI,AOML,UNKNOWN,North
2020-11-12T07:00:02Z,1605164403,2020,7,0,317.2917,317.2917,74.479,-158.02,1007.1,35.95,-999.0,yes,yes,no,300534060318410,BD2GI,AOML,UNKNOWN,North
2020-11-12T07:59:57Z,1605167997,2020,8,0,317.3333,317.3333,74.477,-158.031,1007.1,35.95,-999.0,yes,yes,no,300534060318410,BD2GI,AOML,UNKNOWN,North
2020-11-12T09:00:00Z,1605171600,2020,9,0,317.375,317.375,74.476,-158.041,1007.4,35.95,-999.0,yes,yes,no,300534060318410,BD2GI,AOML,UNKNOWN,North
2020-11-12T10:00:02Z,1605175203,2020,10,0,317.4167,317.4167,74.474,-158.052,1007.3,35.95,-999.0,yes,yes,no,300534060318410,BD2GI,AOML,UNKNOWN,North
2020-11-12T10:59:57Z,1605178797,2020,11,0,317.4583,317.4583,74.473,-158.062,1007.2,35.95,-999.0,yes,yes,no,300534060318410,BD2GI,AOML,UNKNOWN,North
2020-11-12T12:00:00Z,1605182400,2020,12,0,317.5,317.5,74.471,-158.071,1007.1,35.95,-999.0,yes,yes,no,300534060318410,BD2GI,AOML,UNKNOWN,North
2020-11-12T13:00:02Z,1605186003,2020,13,0,317.5417,317.5417,74.47,-158.079,1007.0,35.95,-999.0,yes,yes,no,300534060318410,BD2GI,AOML,UNKNOWN,North
2020-11-12T13:59:57Z,1605189597,2020,14,0,317.5833,317.5833,74.468,-158.088,1006.9,35.95,-999.0,yes,yes,no,300534060318410,BD2GI,AOML,UNKNOWN,North
2020-11-12T15:00:00Z,1605193200,2020,15,0,317.625,317.625,74.466,-158.096,1006.8,35.95,-999.0,yes,yes,no,300534060318410,BD2GI,AOML,UNKNOWN,North
2020-11-12T16:00:02Z,1605196803,2020,16,0,317.6667,317.6667,74.463,-158.104,1006.8,35.95,-999.0,yes,yes,no,300534060318410,BD2GI,AOML,UNKNOWN,North
2020-11-12T16:59:57Z,1605200397,2020,17,0,317.7083,317.7083,74.46,-158.113,1006.8,35.95,-999.0,yes,yes,no,300534060318410,BD2GI,AOML,UNKNOWN,North
2020-11-12T18:00:00Z,1605204000,2020,18,0,317.75,317.75,74.457,-158.12,1006.7,35.95,-999.0,yes,yes,no,300534060318410,BD2GI,AOML,UNKNOWN,North
2020-11-12T19:00:02Z,1605207603,2020,19,0,317.7917,317.7917,74.454,-158.126,1006.7,35.95,-999.0,yes,yes,no,300534060318410,BD2GI,AOML,UNKNOWN,North
2020-11-12T19:59:57Z,1605211197,2020,20,0,317.8333,317.8333,74.45,-158.131,1006.9,35.95,-999.0,yes,yes,no,300534060318410,BD2GI,AOML,UNKNOWN,North
2020-11-12T21:00:00Z,1605214800,2020,21,0,317.875,317.875,74.448,-158.134,1006.8,35.95,-999.0,yes,yes,no,300534060318410,BD2GI,AOML,UNKNOWN,North
2020-11-12T22:00:02Z,1605218403,2020,22,0,317.9167,317.9167,74.445,-158.137,1006.7,35.95,-999.0,yes,yes,no,300534060318410,BD2GI,AOML,UNKNOWN,North
2020-11-12T22:59:57Z,1605221997,2020,23,0,317.9583,317.9583,74.443,-158.138,1006.5,35.95,-999.0,yes,yes,no,300534060318410,BD2GI,AOML,UNKNOWN,North
2020-11-13T00:00:00Z,1605225600,2020,0,0,318.0,318.0,74.441,-158.137,1006.0,35.95,-999.0,yes,yes,no,300534060318410,BD2GI,AOML,UNKNOWN,North
2020-11-13T01:00:02Z,1605229203,2020,1,0,318.0417,318.0417,74.438,-158.134,1005.6,35.95,-999.0,yes,yes,no,300534060318410,BD2GI,AOML,UNKNOWN,North
2020-11-13T01:59:57Z,1605232797,2020,2,0,318.0833,318.0833,74.435,-158.129,1005.0,35.95,-999.0,yes,yes,no,300534060318410,BD2GI,AOML,UNKNOWN,North
2020-11-13T03:00:00Z,1605236400,2020,3,0,318.125,318.125,74.431,-158.124,1005.0,35.95,-999.0,yes,yes,no,300534060318410,BD2GI,AOML,UNKNOWN,North
2020-11-13T04:00:02Z,1605240003,2020,4,0,318.1667,318.1667,74.426,-158.12,1005.1,35.95,-999.0,yes,yes,no,300534060318410,BD2GI,AOML,UNKNOWN,North
2020-11-13T04:59:57Z,1605243597,2020,5,0,318.2083,318.2083,74.421,-158.118,1005.1,35.95,-999.0,yes,yes,no,300534060318410,BD2GI,AOML,UNKNOWN,North
2020-11-13T06:00:00Z,1605247200,2020,6,0,318.25,318.25,74.415,-158.12,1004.9,35.95,-999.0,yes,yes,no,300534060318410,BD2GI,AOML,UNKNOWN,North
2020-11-13T07:00:02Z,1605250803,2020,7,0,318.2917,318.2917,74.41,-158.122,1004.7,35.95,-999.0,yes,yes,no,300534060318410,BD2GI,AOML,UNKNOWN,North
2020-11-13T07:59:57Z,1605254397,2020,8,0,318.3333,318.3333,74.407,-158.123,1004.5,35.95,-999.0,yes,yes,no,300534060318410,BD2GI,AOML,UNKNOWN,North
2020-11-13T09:00:00Z,1605258000,2020,9,0,318.375,318.375,74.404,-158.12,1004.3,35.95,-999.0,yes,yes,no,300534060318410,BD2GI,AOML,UNKNOWN,North
2020-11-13T10:00:02Z,1605261603,2020,10,0,318.4167,318.4167,74.402,-158.113,1003.8,35.95,-999.0,yes,yes,no,300534060318410,BD2GI,AOML,UNKNOWN,North
2020-11-13T10:59:57Z,1605265197,2020,11,0,318.4583,318.4583,74.399,-158.098,1003.3,35.95,-999.0,yes,yes,no,300534060318410,BD2GI,AOML,UNKNOWN,North
2020-11-13T12:00:00Z,1605268800,2020,12,0,318.5,318.5,74.395,-158.078,1002.8,35.95,-999.0,yes,yes,no,300534060318410,BD2GI,AOML,UNKNOWN,North
2020-11-13T13:00:02Z,1605272403,2020,13,0,318.5417,318.5417,74.391,-158.055,1002.1,35.95,-999.0,yes,yes,no,300534060318410,BD2GI,AOML,UNKNOWN,North
2020-11-13T13:59:57Z,1605275997,2020,14,0,318.5833,318.5833,74.385,-158.034,1001.7,35.95,-999.0,yes,yes,no,300534060318410,BD2GI,AOML,UNKNOWN,North
2020-11-13T15:00:00Z,1605279600,2020,15,0,318.625,318.625,74.376,-158.013,1000.9,35.95,-999.0,yes,yes,no,300534060318410,BD2GI,AOML,UNKNOWN,North
2020-11-13T16:00:02Z,1605283203,2020,16,0,318.6667,318.6667,74.366,-157.995,1000.5,35.95,-999.0,yes,yes,no,300534060318410,BD2GI,AOML,UNKNOWN,North
2020-11-13T16:59:57Z,1605286797,2020,17,0,318.7083,318.7083,74.354,-157.976,1000.0,35.95,-999.0,yes,yes,no,300534060318410,BD2GI,AOML,UNKNOWN,North
2020-11-13T18:00:00Z,1605290400,2020,18,0,318.75,318.75,74.341,-157.957,1000.0,35.95,-999.0,yes,yes,no,300534060318410,BD2GI,AOML,UNKNOWN,North
2020-11-13T19:00:02Z,1605294003,2020,19,0,318.7917,318.7917,74.327,-157.941,999.9,35.95,-999.0,yes,yes,no,300534060318410,BD2GI,AOML,UNKNOWN,North
2020-11-13T19:59:57Z,1605297597,2020,20,0,318.8333,318.8333,74.314,-157.928,999.8,35.95,-999.0,yes,yes,no,300534060318410,BD2GI,AOML,UNKNOWN,North
2020-11-13T21:00:00Z,1605301200,2020,21,0,318.875,318.875,74.301,-157.916,999.7,35.95,-999.0,yes,yes,no,300534060318410,BD2GI,AOML,UNKNOWN,North
2020-11-13T22:00:02Z,1605304803,2020,22,0,318.9167,318.9167,74.289,-157.904,999.8,35.95,-999.0,yes,yes,no,300534060318410,BD2GI,AOML,UNKNOWN,North
2020-11-13T22:59:57Z,1605308397,2020,23,0,318.9583,318.9583,74.276,-157.895,999.9,35.95,-999.0,yes,yes,no,300534060318410,BD2GI,AOML,UNKNOWN,North
2020-11-14T00:00:00Z,1605312000,2020,0,0,319.0,319.0,74.267,-157.89,999.8,35.95,-999.0,yes,yes,no,300534060318410,BD2GI,AOML,UNKNOWN,North
2020-11-14T01:00:02Z,1605315603,2020,1,0,319.0417,319.0417,74.256,-157.883,999.7,35.95,-999.0,yes,yes,no,300534060318410,BD2GI,AOML,UNKNOWN,North
2020-11-14T01:59:57Z,1605319197,2020,2,0,319.0833,319.0833,74.245,-157.873,999.5,35.95,-999.0,yes,yes,no,300534060318410,BD2GI,AOML,UNKNOWN,North
2020-11-14T03:00:00Z,1605322800,2020,3,0,319.125,319.125,74.233,-157.861,999.9,35.95,-999.0,yes,yes,no,300534060318410,BD2GI,AOML,UNKNOWN,North
2020-11-14T04:00:02Z,1605326403,2020,4,0,319.1667,319.1667,74.219,-157.847,1000.1,35.95,-999.0,yes,yes,no,300534060318410,BD2GI,AOML,UNKNOWN,North
2020-11-14T04:59:57Z,1605329997,2020,5,0,319.2083,319.2083,74.204,-157.833,1000.1,35.95,-999.0,yes,yes,no,300534060318410,BD2GI,AOML,UNKNOWN,North
2020-11-14T06:00:00Z,1605333600,2020,6,0,319.25,319.25,74.191,-157.825,1000.1,35.95,-999.0,yes,yes,no,300534060318410,BD2GI,AOML,UNKNOWN,North
2020-11-14T07:00:02Z,1605337203,2020,7,0,319.2917,319.2917,74.177,-157.819,1000.5,-2.8,-999.0,yes,yes,no,300534060318410,BD2GI,AOML,UNKNOWN,North
2020-11-14T07:59:57Z,1605340797,2020,8,0,319.3333,319.3333,74.164,-157.816,1000.6,-2.12,-999.0,yes,yes,no,300534060318410,BD2GI,AOML,UNKNOWN,North
2020-11-14T09:00:00Z,1605344400,2020,9,0,319.375,319.375,74.152,-157.816,1000.9,-2.38,-999.0,yes,yes,no,300534060318410,BD2GI,AOML,UNKNOWN,North
2020-11-14T10:00:02Z,1605348003,2020,10,0,319.4167,319.4167,74.142,-157.815,1001.0,-3.12,-999.0,yes,yes,no,300534060318410,BD2GI,AOML,UNKNOWN,North
2020-11-14T10:59:57Z,1605351597,2020,11,0,319.4583,319.4583,74.133,-157.812,1001.1,-3.32,-999.0,yes,yes,no,300534060318410,BD2GI,AOML,UNKNOWN,North
2020-11-14T12:00:00Z,1605355200,2020,12,0,319.5,319.5,74.124,-157.805,1001.1,-3.63,-999.0,yes,yes,no,300534060318410,BD2GI,AOML,UNKNOWN,North
2020-11-14T13:00:02Z,1605358803,2020,13,0,319.5417,319.5417,74.116,-157.79,1001.4,-3.89,-999.0,yes,yes,no,300534060318410,BD2GI,AOML,UNKNOWN,North
2020-11-14T13:59:57Z,1605362397,2020,14,0,319.5833,319.5833,74.108,-157.772,1001.7,-4.22,-999.0,yes,yes,no,300534060318410,BD2GI,AOML,UNKNOWN,North
2020-11-14T15:00:00Z,1605366000,2020,15,0,319.625,319.625,74.1,-157.754,1002.2,-4.56,-999.0,yes,yes,no,300534060318410,BD2GI,AOML,UNKNOWN,North